MET'MAP v2.0
soon released !

Expected late october,
this new version will be
more efficient, smarter,
and hosted on a brand new
server x3 powerfull...
...and still free !


Not compatible ?
Try the mobile version !

LOG IN : | Subscribe | Disclaimer | Who is Orbifly ? |
ICAO code :

TAF - LFBM Mont-De-Marsan - 03 Dec 2020 15:36 UTC
Data Sources :     NOAA   


- Airport Elevation : 203 ft
- IATA code : XMJ
- No reported NOTAMs.


LFBM - Mont-De-Marsan

Latest METAR recorded : 2020/12/03 14:00 LFBM 031400Z AUTO 24008KT CAVOK 13/06 Q1002 NOSIG
NO TAF


MET'MAP, your aeronautical weather chart ! - Copyright ORBIFLY December 2007

Programming & Development : Alexandra Zaïnal
Co-Developer : Marc-Olivier Méhu
Technical & hardware support : Manuel Goepfert
Concept & Financing : Baudouin d'Aumeries